Location: Izdebno
(52.6670°N, 16.2170°E)
Time: 19:37:08
(UTC+02:00)

SR - Pass Details

Date: 06 March 2024
Orbit: 577 x 862 km, 66.7° (Epoch: 20 April)

Event Time Altitude Azimuth Distance (km) Brightness Sun altitude
Rises 21:06:36 0° 319° (NW) 3,220 ? -30.0°
Reaches altitude 10° 21:09:07 10° 316° (NW) 2,243 ? -30.3°
Enters shadow 21:12:52 45° 292° (WNW) 956 ? -30.8°
